FWI41D TFFR-LFPO

Flight info

Callsign FWI41D
Flight time N/A
Altitude 35000
Route CAIRN2F CAIRN DCT BNJEE DCT 23N055W 27N050W/M085F370 30N045W 33N040W 36N035W 38N030W 42N020W/M085F390 DCT PASAS DCT SIVIR/M085F380 UN460 RIVAK/N0495F380 DCT AKEMO DCT TERPO DCT ANG/N0494F270 UN482 DEKJA/N0502F280 UN482 NIMER DCT CAD
Aircraft A35K/H-SDE2E3GHIJ3J4J5LM1ORWXY/LB1D1

Departure

Time N/A
Airport Maryse Condé International Airport (TFFR)

Arrival

Time 2026-05-04 19:56
Airport Paris-Orly Airport (LFPO)
Time Latitude Longitude Altitude Speed Heading
2026-05-04 19:03 46.00111 -8.53771 39010 ft 501 kts 89°
2026-05-04 19:03 46.00092 -8.47570 39009 ft 501 kts 89°
2026-05-04 19:03 46.00060 -8.27505 39010 ft 502 kts 89°
2026-05-04 19:04 46.00027 -8.07421 39004 ft 502 kts 89°
2026-05-04 19:04 46.00823 -7.97527 39004 ft 499 kts 73°
2026-05-04 19:04 46.02975 -7.88033 39006 ft 499 kts 69°
2026-05-04 19:05 46.07741 -7.69381 39003 ft 500 kts 69°
2026-05-04 19:05 46.12506 -7.50438 39005 ft 500 kts 70°
2026-05-04 19:06 46.17183 -7.31584 38998 ft 499 kts 70°
2026-05-04 19:06 46.21799 -7.12835 38993 ft 499 kts 70°
2026-05-04 19:07 46.26419 -6.93913 38993 ft 499 kts 70°
2026-05-04 19:07 46.31007 -6.74963 38996 ft 499 kts 71°
2026-05-04 19:08 46.34794 -6.59198 38996 ft 499 kts 71°
2026-05-04 19:08 46.39328 -6.40176 38997 ft 499 kts 71°
2026-05-04 19:09 46.43823 -6.21150 38996 ft 498 kts 71°
2026-05-04 19:09 46.48284 -6.02107 38995 ft 499 kts 71°
2026-05-04 19:10 46.52003 -5.86100 38996 ft 500 kts 72°
2026-05-04 19:10 46.57135 -5.63819 38993 ft 500 kts 72°
2026-05-04 19:11 46.61516 -5.44613 38996 ft 501 kts 72°
2026-05-04 19:11 46.65876 -5.25328 38991 ft 501 kts 72°
2026-05-04 19:12 46.72356 -4.96335 38993 ft 502 kts 73°
2026-05-04 19:13 46.76609 -4.77090 38995 ft 502 kts 73°
2026-05-04 19:13 46.80863 -4.57656 38993 ft 503 kts 73°
2026-05-04 19:14 46.85086 -4.38187 38992 ft 502 kts 73°
2026-05-04 19:14 46.89267 -4.18727 38996 ft 502 kts 73°
2026-05-04 19:15 46.93420 -3.99215 38988 ft 502 kts 73°
2026-05-04 19:15 46.97534 -3.79701 38990 ft 502 kts 73°
2026-05-04 19:16 47.01616 -3.60150 38986 ft 501 kts 74°
2026-05-04 19:16 47.05654 -3.40619 38982 ft 500 kts 74°
2026-05-04 19:17 47.09018 -3.24205 38980 ft 501 kts 74°
2026-05-04 19:17 47.10997 -3.14487 38982 ft 500 kts 75°
2026-05-04 19:18 47.13621 -3.01521 38981 ft 500 kts 75°
2026-05-04 19:18 47.17558 -2.81890 38979 ft 501 kts 75°
2026-05-04 19:19 47.21462 -2.62197 38974 ft 502 kts 75°
2026-05-04 19:19 47.25173 -2.43307 38966 ft 502 kts 75°
2026-05-04 19:20 47.27102 -2.33413 38965 ft 503 kts 76°
2026-05-04 19:20 47.29021 -2.23520 38966 ft 503 kts 76°
2026-05-04 19:21 47.30935 -2.13603 38968 ft 503 kts 76°
2026-05-04 19:21 47.32839 -2.03682 38961 ft 503 kts 76°
2026-05-04 19:22 47.34738 -1.93739 38962 ft 504 kts 76°
2026-05-04 19:22 47.36583 -1.83778 38965 ft 503 kts 77°
2026-05-04 19:23 47.38322 -1.73903 38955 ft 503 kts 77°
2026-05-04 19:23 47.40077 -1.63895 38951 ft 504 kts 77°
2026-05-04 19:24 47.41838 -1.53879 38947 ft 504 kts 77°
2026-05-04 19:24 47.43594 -1.43873 38946 ft 504 kts 77°
2026-05-04 19:25 47.45344 -1.33853 38942 ft 504 kts 77°
2026-05-04 19:25 47.47090 -1.23792 38927 ft 504 kts 77°
2026-05-04 19:26 47.48825 -1.13734 38935 ft 506 kts 77°
2026-05-04 19:26 47.50546 -1.03703 38936 ft 506 kts 77°
2026-05-04 19:27 47.52265 -0.93622 38937 ft 506 kts 77°
2026-05-04 19:27 47.53218 -0.87150 38938 ft 504 kts 84°
2026-05-04 19:28 47.53413 -0.84261 38930 ft 503 kts 89°
2026-05-04 19:28 47.53187 -0.73973 38935 ft 501 kts 96°
2026-05-04 19:29 47.52668 -0.63687 38939 ft 501 kts 96°
2026-05-04 19:29 47.52123 -0.53419 38938 ft 501 kts 96°
2026-05-04 19:30 47.51585 -0.43142 38937 ft 501 kts 96°
2026-05-04 19:30 47.51075 -0.32909 38936 ft 502 kts 94°
2026-05-04 19:30 47.51144 -0.27755 38821 ft 499 kts 86°
2026-05-04 19:31 47.51692 -0.22668 38061 ft 502 kts 78°
2026-05-04 19:31 47.52805 -0.17801 37084 ft 509 kts 68°
2026-05-04 19:31 47.54473 -0.13082 36143 ft 513 kts 63°
2026-05-04 19:31 47.56208 -0.08563 35115 ft 508 kts 64°
2026-05-04 19:32 47.57944 -0.04023 33635 ft 507 kts 66°
2026-05-04 19:32 47.59699 0.00607 31973 ft 506 kts 65°
2026-05-04 19:32 47.61374 0.05029 31164 ft 490 kts 65°
2026-05-04 19:32 47.63035 0.09423 30383 ft 482 kts 66°
2026-05-04 19:33 47.64661 0.13759 29568 ft 490 kts 66°
2026-05-04 19:33 47.66173 0.17795 28728 ft 491 kts 65°
2026-05-04 19:33 47.66968 0.19914 28396 ft 488 kts 65°
2026-05-04 19:33 47.68271 0.23388 27913 ft 484 kts 65°
2026-05-04 19:34 47.69874 0.27669 27314 ft 479 kts 65°
2026-05-04 19:34 47.71482 0.31970 26686 ft 474 kts 65°
2026-05-04 19:34 47.73070 0.36229 26088 ft 470 kts 64°
2026-05-04 19:34 47.74646 0.40462 25476 ft 465 kts 64°
2026-05-04 19:35 47.76207 0.44660 24851 ft 461 kts 64°
2026-05-04 19:35 47.77745 0.48805 24278 ft 457 kts 64°
2026-05-04 19:35 47.79272 0.52925 23683 ft 454 kts 63°
2026-05-04 19:35 47.80790 0.57026 23024 ft 450 kts 63°
2026-05-04 19:36 47.82289 0.61080 22416 ft 444 kts 63°
2026-05-04 19:36 47.83769 0.65090 21844 ft 439 kts 63°
2026-05-04 19:36 47.85228 0.69049 21246 ft 434 kts 63°
2026-05-04 19:36 47.86673 0.72977 20667 ft 429 kts 63°
2026-05-04 19:37 47.88102 0.76867 20085 ft 425 kts 63°
2026-05-04 19:37 47.89513 0.80716 19496 ft 422 kts 63°
2026-05-04 19:37 47.90912 0.84536 18901 ft 418 kts 63°
2026-05-04 19:37 47.92298 0.88328 18327 ft 415 kts 62°
2026-05-04 19:38 47.93678 0.92105 17678 ft 412 kts 62°
2026-05-04 19:38 47.95044 0.95848 17078 ft 409 kts 62°
2026-05-04 19:38 47.96310 0.99323 16533 ft 405 kts 62°
2026-05-04 19:38 47.97653 1.03015 15931 ft 401 kts 63°
2026-05-04 19:39 47.98960 1.06615 15357 ft 398 kts 63°
2026-05-04 19:39 48.00281 1.10256 14775 ft 395 kts 63°
2026-05-04 19:39 48.01579 1.13838 14183 ft 392 kts 63°
2026-05-04 19:39 48.02867 1.17399 13793 ft 383 kts 63°
2026-05-04 19:40 48.04099 1.20807 13656 ft 365 kts 63°
2026-05-04 19:40 48.05287 1.24097 13510 ft 349 kts 63°
2026-05-04 19:40 48.06411 1.27215 13388 ft 334 kts 63°
2026-05-04 19:40 48.07486 1.30205 13209 ft 320 kts 62°
2026-05-04 19:41 48.08515 1.33056 13060 ft 307 kts 62°
2026-05-04 19:41 48.09508 1.35822 12916 ft 296 kts 63°
2026-05-04 19:41 48.10467 1.38498 12755 ft 287 kts 63°
2026-05-04 19:41 48.11397 1.41099 12475 ft 283 kts 63°
2026-05-04 19:42 48.12325 1.43687 12172 ft 282 kts 62°
2026-05-04 19:42 48.13444 1.46087 11866 ft 282 kts 46°
2026-05-04 19:42 48.15009 1.47949 11682 ft 295 kts 34°
2026-05-04 19:42 48.16738 1.49671 11622 ft 298 kts 34°
2026-05-04 19:43 48.18452 1.51381 11170 ft 297 kts 34°
2026-05-04 19:43 48.20155 1.53091 10717 ft 297 kts 34°
2026-05-04 19:43 48.21863 1.54816 10383 ft 295 kts 35°
2026-05-04 19:43 48.23553 1.56525 10088 ft 293 kts 35°
2026-05-04 19:44 48.25235 1.58230 9819 ft 290 kts 35°
2026-05-04 19:44 48.26904 1.59925 9571 ft 289 kts 35°
2026-05-04 19:44 48.28572 1.61623 9321 ft 288 kts 35°
2026-05-04 19:44 48.30222 1.63303 9088 ft 287 kts 35°
2026-05-04 19:45 48.31875 1.64988 8857 ft 285 kts 35°
2026-05-04 19:45 48.33513 1.66659 8612 ft 284 kts 35°
2026-05-04 19:45 48.35139 1.68318 8375 ft 283 kts 35°
2026-05-04 19:45 48.36763 1.69977 8148 ft 281 kts 35°
2026-05-04 19:46 48.38382 1.71632 7896 ft 280 kts 35°
2026-05-04 19:46 48.39991 1.73278 7686 ft 280 kts 34°
2026-05-04 19:46 48.41604 1.74942 7553 ft 280 kts 36°
2026-05-04 19:46 48.43206 1.76612 7371 ft 280 kts 35°
2026-05-04 19:47 48.44773 1.78245 7129 ft 276 kts 35°
2026-05-04 19:47 48.46352 1.79889 6885 ft 275 kts 35°
2026-05-04 19:47 48.47820 1.81703 6643 ft 273 kts 44°
2026-05-04 19:47 48.49332 1.83454 6397 ft 273 kts 34°
2026-05-04 19:48 48.50928 1.85015 6146 ft 272 kts 33°
2026-05-04 19:48 48.52512 1.86545 5899 ft 270 kts 33°
2026-05-04 19:48 48.54096 1.88069 5645 ft 269 kts 33°
2026-05-04 19:48 48.55666 1.89592 5424 ft 267 kts 35°
2026-05-04 19:49 48.57115 1.91335 5389 ft 267 kts 44°
2026-05-04 19:49 48.58337 1.93447 5387 ft 266 kts 55°
2026-05-04 19:49 48.59289 1.95832 5393 ft 265 kts 62°
2026-05-04 19:49 48.60128 1.98231 5356 ft 250 kts 62°
2026-05-04 19:50 48.60945 2.00506 5122 ft 242 kts 61°
2026-05-04 19:50 48.61745 2.02728 4797 ft 239 kts 62°
2026-05-04 19:50 48.62525 2.04929 4397 ft 235 kts 62°
2026-05-04 19:50 48.63275 2.07040 4030 ft 221 kts 62°
2026-05-04 19:51 48.63979 2.09021 3716 ft 207 kts 62°
2026-05-04 19:51 48.64636 2.10875 3465 ft 192 kts 61°
2026-05-04 19:51 48.65243 2.12587 3217 ft 177 kts 61°
2026-05-04 19:51 48.65801 2.14160 2969 ft 164 kts 61°
2026-05-04 19:52 48.66319 2.15624 2780 ft 153 kts 61°
2026-05-04 19:52 48.66645 2.16542 2622 ft 145 kts 61°
2026-05-04 19:52 48.67255 2.18265 2385 ft 139 kts 61°
2026-05-04 19:52 48.67564 2.19140 2258 ft 140 kts 61°
2026-05-04 19:53 48.68174 2.20866 2008 ft 141 kts 61°
2026-05-04 19:53 48.68635 2.22174 1821 ft 141 kts 61°
2026-05-04 19:53 48.68946 2.23054 1689 ft 140 kts 61°
2026-05-04 19:53 48.69558 2.24784 1437 ft 140 kts 61°
2026-05-04 19:54 48.70366 2.27070 1075 ft 142 kts 60°
2026-05-04 19:54 48.70831 2.28386 883 ft 142 kts 60°
2026-05-04 19:54 48.71294 2.29705 673 ft 142 kts 60°
2026-05-04 19:55 48.71749 2.31019 454 ft 140 kts 60°
2026-05-04 19:55 48.72214 2.32294 306 ft 138 kts 59°
2026-05-04 19:55 48.72599 2.33370 299 ft 104 kts 62°
2026-05-04 19:55 48.72780 2.33977 299 ft 59 kts 81°
2026-05-04 19:56 48.72808 2.34424 298 ft 40 kts 81°
2026-05-04 19:56 48.72834 2.34696 294 ft 23 kts 81°
2026-05-04 19:56 48.72856 2.34914 297 ft 21 kts 81°
2026-05-04 19:56 48.72850 2.35118 299 ft 18 kts 103°
2026-05-04 19:57 48.72779 2.35216 299 ft 14 kts 159°
2026-05-04 19:57 48.72693 2.35263 294 ft 13 kts 160°
2026-05-04 19:57 48.72612 2.35300 296 ft 12 kts 165°
2026-05-04 19:57 48.72532 2.35332 298 ft 12 kts 165°
2026-05-04 19:58 48.72476 2.35354 297 ft 0 kts 165°
2026-05-04 19:58 48.72472 2.35355 296 ft 1 kts 165°
2026-05-04 19:58 48.72469 2.35357 297 ft 0 kts 165°